COSMOS 2251 DEB, 34343

Orbit data source: Space-Track

COSMOS 2251 DEB, 34343 is space debris in LEO originally from a launch on Wed, 16 Jun 1993 UTC launched from the Plesetsk Missile And Space Complex (PKMTR). The debris from Iridium 33, an American commercial communications satellite, has been tracked extensively since its accidental collision with the defunct Russian satellite Cosmos 2251 in 2009. This event, occurring at high speed in low Earth orbit (LEO), generated thousands of pieces of space debris, significantly increasing the risk of further collisions. The Iridium 33 debris cloud has impacted space traffic management and orbital debris mitigation strategies, making it a subject of ongoing study in space situational awareness.

Loading next visibility...
Identifier
34343, 1993-036PR
Orbit
LEO
Country
Flag of CISCIS
Related business
Manufacturer
Unknown
Mission
Spacecraft
Bus & Motor
Unknown
Mass
Unknown
Launch date (UTC)
1993-06-16 (33 years ago)
Launch vehicle
Unknown
Launch site
Plesetsk Missile And Space Complex (PKMTR)
Object type
Payload
Rocket body
Debris
Shape & HBR
Unknown shape, 0.1 m
Radar Cross Section
Small (<0.1 m²)

Expand to show TLE details & history
Last TLE update: 12 hours ago

TLE from 12 hours ago
0 COSMOS 2251 DEB
1 34343U 93036PR  26124.15093108  .00005180  00000-0  82674-3 0  9994
2 34343  74.0175 172.7894 0019169  47.8294  17.6431 14.72037096908245
Epoch: 2026-05-04T03:37Z
TLE epoch observation values (Epoch: 2026-05-04T03:37:20.445Z)
Latitude
61.1583°
Longitude
-72.44036°
Altitude
651.822 km
Speed
7.545 km/s
True Right ascension
13h 35m 45s
True Declination
61° 00' 38"
Sunlit
Object was in daylight at epoch
Visualization orbit readout
Latitude
Unknown
Longitude
Unknown
Altitude
Unknown
Speed
Unknown
Apparent Right ascension
Unknown
Apparent Declination
Unknown
Sunlit
N/A
Visualization observer readout
Local Sidereal Time
23:29:21
Azimuth
Unknown
Elevation
Unknown
Doppler factor
Unknown
Orbital elements
Apogee altitude
665.635 km
Perigee altitude
638.682 km
Semi-major axis
7,030.295 km
Eccentricity
0.00192
Inclination
74.0175°
RAAN
172.7894°
Arg. of periapsis
47.8294°
True anomaly
17.70983°
Mean anomaly
17.6431°
Eccentric anomaly
17.67645°
Mean motion
3.68199 °/min
Orbital period
97.77 mins
BSTAR
0.00082674
Loading maneuver chart data...
Computing Atmospheric mass density...

Documentation

Showing up to 5 results
|